[[{"header":{"parameterUnit":"m.s-1","parameterCategory":2,"la1":30.2991,"la2":30.254,"lo1":-89.0895,"lo2":-89.0444,"dy":0.0017,"dx":0.0017,"nx":28,"ny":28,"refTime":"2025-07-16T09:00:00:Z","depth":"0","parameterNumber":2,"parameterNumberName":"U-component_of_CURRENTS"},"data":[0,0,0,0,0,0,0,0,0,0,0,0,0,0,0,0,0,0,0,0,0,0,0,0,0,0,0,0,0,0,0,0,0,0,0,0,0,0,0,0,0,0,0,0,0,0,0,0,0,0,0,0,0,0,0,0,0,0,-0.3242,-0.3242,0,-0.3258,-0.3258,-0.3258,-0.3216,-0.3215,-0.3214,-0.3213,-0.3133,-0.3132,-0.3131,0,0,0,0,0,0,0,0,0,0,0,0,0,-0.2883,-0.2891,-0.3242,-0.3242,-0.3243,-0.3258,-0.3258,-0.3258,-0.3216,-0.3215,-0.3214,-0.3213,-0.3134,-0.3132,-0.313,0,0,0,0,0,0,0,0,0,0,0,0,0,-0.2979,-0.2894,-0.3241,-0.3227,-0.3227,-0.3258,-0.3258,-0.3258,-0.3216,-0.3215,-0.3214,-0.3212,-0.3134,-0.3132,-0.313,-0.3144,0,0,-0.3124,-0.3123,0,0,0,0,0,0,0,0,-0.2974,-0.2992,-0.3229,-0.3229,-0.3228,-0.3238,-0.3102,-0.3217,-0.3216,-0.3215,-0.3213,-0.3212,-0.3163,-0.3159,-0.3159,-0.314,-0.3137,-0.3124,-0.3123,-0.3122,-0.3121,0,0,0,0,0,0,0,-0.2968,-0.2989,-0.3243,-0.323,-0.3229,-0.3121,-0.3135,-0.3122,-0.3191,-0.3215,-0.3213,-0.3223,-0.3161,-0.3161,-0.3157,-0.3136,-0.3124,-0.3122,-0.3121,-0.312,-0.3001,-0.2999,0,0,0,0,0,0,-0.2994,-0.2986,-0.3243,-0.3244,-0.31,-0.313,-0.3146,-0.3232,-0.3193,-0.3188,-0.3224,-0.3221,-0.3165,-0.3159,-0.3154,-0.3103,-0.3122,-0.312,-0.3119,-0.3003,-0.3001,-0.2998,0,0,0,0,0,0,-0.2988,-0.302,-0.3242,-0.3112,-0.3134,-0.314,-0.3235,-0.3233,-0.3246,-0.3202,-0.3194,-0.3242,-0.3164,-0.3157,-0.3124,-0.3102,-0.3119,-0.3117,-0.3005,-0.3002,-0.3,-0.3042,0,0,0,0,0,0,-0.2979,-0.302,-0.3086,-0.3119,-0.3143,-0.3279,-0.3237,-0.3235,-0.3256,-0.3252,-0.3215,-0.3205,-0.3163,-0.3128,-0.3122,-0.3099,-0.3116,-0.3008,-0.3004,-0.3,-0.3043,-0.3041,-0.3039,0,0,0,0,0,-0.2967,-0.3099,-0.3091,-0.312,-0.324,-0.3282,-0.3284,-0.3275,-0.3259,-0.3278,-0.3224,-0.3207,-0.3099,-0.3126,-0.312,-0.3095,-0.301,-0.3005,-0.3001,-0.3044,-0.3041,-0.3039,0,0,0,0,0,0,-0.3027,-0.3108,-0.31,-0.3264,-0.3265,-0.3277,-0.3315,-0.3294,-0.3272,-0.3266,-0.3206,-0.3193,-0.3145,-0.3117,-0.3148,-0.3042,-0.3042,-0.3037,-0.3077,-0.3074,-0.3072,-0.3097,-0.3114,0,0,0,0,0,-0.306,-0.3148,-0.3189,-0.3306,-0.3325,-0.3313,-0.3329,-0.3317,-0.3304,-0.3296,-0.3253,-0.319,-0.3122,-0.31,-0.3048,-0.3021,-0.2984,-0.2988,-0.2986,-0.2985,-0.2996,-0.2935,-0.293,-0.2984,-0.2984,-0.2984,0,0,-0.3113,-0.3167,-0.3219,-0.3314,-0.3324,-0.3332,-0.3321,-0.3367,-0.3336,-0.329,-0.3248,-0.3196,-0.3112,-0.3053,-0.3029,-0.3032,-0.2941,-0.2979,-0.298,-0.2992,-0.293,-0.2925,-0.2921,-0.2981,-0.2981,-0.2982,0,0,-0.3213,-0.3314,-0.3381,-0.338,-0.3401,-0.3387,-0.3403,-0.3407,-0.338,-0.3339,-0.3268,-0.3211,-0.3134,-0.3058,-0.3007,-0.297,-0.2933,-0.2943,-0.2961,-0.2901,-0.2897,-0.2893,-0.2815,-0.2804,-0.2943,-0.2943,-0.2943,0,-0.3269,-0.3358,-0.3401,-0.3427,-0.342,-0.341,-0.3422,-0.3398,-0.3369,-0.3338,-0.3327,-0.318,-0.3125,-0.3021,-0.2994,-0.2968,-0.2927,-0.2985,-0.2903,-0.2898,-0.2894,-0.2815,-0.2803,-0.2944,-0.2944,-0.2944,-0.2944,0,-0.3369,-0.3412,-0.346,-0.3467,-0.3469,-0.3497,-0.3454,-0.3439,-0.34,-0.3351,-0.3268,-0.3189,-0.3099,-0.306,-0.3017,-0.294,-0.2916,-0.2912,-0.2923,-0.2892,-0.2809,-0.2795,-0.2947,-0.2946,-0.2946,-0.2945,0,0,-0.3561,-0.3532,-0.3541,-0.3496,-0.3485,-0.3494,-0.3456,-0.3412,-0.3374,-0.3321,-0.3257,-0.3142,-0.3117,-0.3058,-0.2995,-0.2948,-0.287,-0.2927,-0.2923,-0.2874,-0.2725,-0.2654,-0.2632,-0.2863,-0.2861,-0.286,-0.2672,0,-0.3608,-0.3626,-0.3602,-0.3568,-0.356,-0.3508,-0.3462,-0.3409,-0.3358,-0.3297,-0.3212,-0.3125,-0.3105,-0.3057,-0.3011,-0.2898,-0.2841,-0.2921,-0.2741,-0.2735,-0.2697,-0.2616,-0.2565,-0.239,-0.2658,-0.2656,-0.2654,0,-0.3684,-0.3675,-0.3659,-0.356,-0.3562,-0.3528,-0.3455,-0.3406,-0.3318,-0.3275,-0.3207,-0.3147,-0.3039,-0.304,-0.2865,-0.292,-0.2832,-0.2761,-0.2751,-0.2668,-0.2639,-0.2465,-0.2355,-0.2312,-0.2633,-0.2635,-0.2636,0,-0.3725,-0.3697,-0.3669,-0.3643,-0.3561,-0.3527,-0.3477,-0.3401,-0.3335,-0.3252,-0.3197,-0.3107,-0.301,-0.2925,-0.2781,-0.2818,-0.2597,-0.262,-0.247,-0.2463,-0.2375,-0.2363,-0.2227,-0.2509,-0.251,-0.251,-0.2511,0,-0.3757,-0.3727,-0.3679,-0.365,-0.3598,-0.354,-0.3459,-0.3411,-0.3319,-0.3221,-0.3177,-0.3079,-0.2981,-0.2849,-0.2762,-0.2553,-0.2568,-0.2452,-0.2405,-0.2382,-0.2374,-0.2299,-0.232,-0.2503,-0.2505,-0.2506,-0.2507,0,-0.3762,-0.3742,-0.3683,-0.3618,-0.3595,-0.3545,-0.3417,-0.3333,-0.3284,-0.3156,-0.3119,-0.3012,-0.2835,-0.2726,-0.2545,-0.2476,-0.2264,-0.2248,-0.2218,-0.2173,-0.2019,-0.2045,-0.1857,-0.1809,-0.2052,-0.2049,-0.2046,0,-0.3754,-0.3731,-0.3657,-0.359,-0.3543,-0.346,-0.3364,-0.3304,-0.3214,-0.3093,-0.3012,-0.2855,-0.2703,-0.2422,-0.2283,-0.2094,-0.2099,-0.1945,-0.2013,-0.1978,-0.1973,-0.2,-0.1977,-0.1894,-0.1891,-0.1888,-0.1885,0,-0.3687,-0.3664,-0.3593,-0.3475,-0.3372,-0.3285,-0.317,-0.3111,-0.3018,-0.2952,-0.2806,-0.2699,-0.2451,-0.2226,-0.2011,-0.1911,-0.191,-0.1878,-0.1846,-0.1835,-0.185,-0.1792,-0.2048,-0.186,-0.1862,-0.1864,-0.1866,-0.1867,-0.3586,-0.3518,-0.3387,-0.3262,-0.3169,-0.3045,-0.2928,-0.2857,-0.2741,-0.2585,-0.2599,-0.2394,-0.2201,-0.189,-0.1786,-0.1602,-0.1676,-0.1565,-0.1593,-0.1617,-0.1596,-0.1787,-0.1557,-0.1558,-0.1558,-0.1559,-0.156,0,-0.3349,-0.326,-0.315,-0.2961,-0.2801,-0.2836,-0.2714,-0.2603,-0.2453,-0.2366,-0.2257,-0.2013,-0.1794,-0.1637,-0.1439,-0.1349,-0.1353,-0.1315,-0.136,-0.1346,-0.1495,-0.1516,-0.1263,-0.1263,-0.1263,-0.1263,-0.1263,-0.1263,-0.3178,-0.2974,-0.2917,-0.2593,-0.2499,-0.2274,-0.2201,-0.2152,-0.2083,-0.1878,-0.1729,-0.1638,-0.1475,-0.1413,-0.1249,-0.1201,-0.1179,-0.1147,-0.1149,-0.1293,-0.132,-0.1346,-0.1369,-0.1089,-0.1089,-0.0981,-0.098,-0.0979]},{"header":{"parameterUnit":"m.s-1","parameterCategory":2,"la1":30.2991,"la2":30.254,"lo1":-89.0895,"lo2":-89.0444,"dy":0.0017,"dx":0.0017,"nx":28,"ny":28,"refTime":"2025-07-16T09:00:00:Z","depth":"0","parameterNumber":3,"parameterNumberName":"V-component_of_CURRENTS"},"data":[0,0,0,0,0,0,0,0,0,0,0,0,0,0,0,0,0,0,0,0,0,0,0,0,0,0,0,0,0,0,0,0,0,0,0,0,0,0,0,0,0,0,0,0,0,0,0,0,0,0,0,0,0,0,0,0,0,0,-0.0502,-0.0501,0,-0.0309,-0.0306,-0.0304,-0.0258,-0.026,-0.0262,-0.0263,0.0055,0.0065,0.0075,0,0,0,0,0,0,0,0,0,0,0,0,0,-0.059,-0.0589,-0.0502,-0.0501,-0.0499,-0.031,-0.0306,-0.0303,-0.0257,-0.026,-0.0262,-0.0264,0.0052,0.0064,0.0076,0,0,0,0,0,0,0,0,0,0,0,0,0,-0.0483,-0.0589,-0.0503,-0.0459,-0.0453,-0.031,-0.0306,-0.0302,-0.0257,-0.026,-0.0263,-0.0265,0.0048,0.0063,0.0078,0.0233,0,0,0.0125,0.0132,0,0,0,0,0,0,0,0,-0.049,-0.0479,-0.0467,-0.0462,-0.0456,-0.0317,-0.0221,-0.0119,-0.0256,-0.0324,-0.0263,-0.0267,-0.006,-0.0036,0.0016,0.0248,0.0261,0.0127,0.0136,0.0143,0.0147,0,0,0,0,0,0,0,-0.0498,-0.0486,-0.0418,-0.0465,-0.0458,-0.0366,-0.0356,-0.02,-0.017,-0.0318,-0.0316,-0.0305,-0.0056,0.0,0.0024,0.0266,0.0126,0.014,0.015,0.0156,0.0744,0.075,0,0,0,0,0,0,-0.0545,-0.0494,-0.0425,-0.0413,-0.0489,-0.0364,-0.0352,-0.0352,-0.0174,-0.0153,-0.0303,-0.0304,-0.0025,0.0005,0.0035,0.0305,0.0143,0.0157,0.0166,0.0737,0.0745,0.0752,0,0,0,0,0,0,-0.0548,-0.0541,-0.0433,-0.0454,-0.0435,-0.0362,-0.0361,-0.0347,-0.0294,-0.0165,-0.0141,-0.0267,-0.0026,0.0013,0.0188,0.0314,0.0164,0.0178,0.073,0.074,0.0749,0.0797,0,0,0,0,0,0,-0.0552,-0.0544,-0.0545,-0.0458,-0.0436,-0.0317,-0.0359,-0.0342,-0.0287,-0.0286,-0.0125,-0.0099,-0.0025,0.0165,0.0204,0.0333,0.019,0.0722,0.0734,0.0746,0.0788,0.0807,0.0824,0,0,0,0,0,-0.0555,-0.0531,-0.0546,-0.0537,-0.0446,-0.0314,-0.0289,-0.0243,-0.0283,-0.0216,-0.0131,-0.0104,0.0269,0.0182,0.0226,0.0363,0.0716,0.0731,0.0745,0.078,0.0804,0.0824,0,0,0,0,0,0,-0.0558,-0.0523,-0.0537,-0.0505,-0.0412,-0.0309,-0.0247,-0.0236,-0.0117,-0.0121,-0.0034,0.0004,0.0207,0.0287,0.0188,0.0573,0.0505,0.0528,0.0517,0.054,0.0558,0.0523,0.0203,0,0,0,0,0,-0.0568,-0.055,-0.0481,-0.0449,-0.0404,-0.0331,-0.0277,-0.0242,-0.014,-0.0095,0.0012,0.0149,0.031,0.0412,0.0559,0.0773,0.0768,0.0898,0.0916,0.093,0.0938,0.101,0.1032,0.0799,0.0799,0.0798,0,0,-0.0559,-0.054,-0.0529,-0.0449,-0.0379,-0.025,-0.0301,-0.0199,-0.0083,-0.0069,0.0126,0.021,0.0375,0.0601,0.0705,0.068,0.0997,0.0948,0.0959,0.0959,0.1027,0.1048,0.1067,0.0808,0.0807,0.0805,0,0,-0.0491,-0.0511,-0.0449,-0.036,-0.0261,-0.0195,-0.0171,-0.0051,0.0012,0.0195,0.0234,0.0374,0.0635,0.0769,0.0871,0.109,0.1073,0.1158,0.1249,0.1319,0.1336,0.1351,0.1352,0.1367,0.1187,0.1188,0.1188,0,-0.0473,-0.0401,-0.0396,-0.0281,-0.0197,-0.0168,-0.0032,0.0069,0.0229,0.0295,0.0273,0.0605,0.0726,0.0988,0.1064,0.1131,0.1125,0.1136,0.1333,0.1348,0.1362,0.1359,0.1375,0.1192,0.1191,0.1191,0.119,0,-0.0325,-0.0259,-0.0196,-0.006,0.0036,0.0162,0.0278,0.038,0.0427,0.0508,0.0721,0.0857,0.1032,0.1128,0.1171,0.1377,0.1321,0.1315,0.1246,0.1387,0.1377,0.1392,0.1197,0.1196,0.1195,0.1194,0,0,-0.0277,-0.0128,-0.0096,-0.0027,0.0159,0.0244,0.0442,0.0617,0.0695,0.0857,0.0978,0.1256,0.1233,0.1346,0.1412,0.1502,0.1594,0.1455,0.1457,0.14,0.1688,0.1604,0.161,0.1597,0.1601,0.1604,0.1627,0,-0.0141,0.0046,0.0115,0.0326,0.0433,0.0524,0.0684,0.0826,0.0924,0.1048,0.1179,0.1314,0.1351,0.1388,0.1501,0.1554,0.1641,0.1585,0.161,0.161,0.1473,0.163,0.154,0.155,0.1641,0.1644,0.1646,0,0.001,0.0103,0.0294,0.0448,0.0506,0.0627,0.0805,0.0952,0.1127,0.1186,0.1323,0.1375,0.1553,0.1519,0.1703,0.165,0.1687,0.1721,0.1723,0.1636,0.1557,0.1439,0.1573,0.1583,0.1668,0.1666,0.1664,0,0.0002,0.0234,0.0354,0.0431,0.0623,0.0701,0.0802,0.0975,0.1054,0.1222,0.1245,0.146,0.15,0.1625,0.1696,0.1693,0.1829,0.1831,0.1803,0.1793,0.1723,0.1702,0.1825,0.197,0.197,0.197,0.197,0,0.0103,0.0204,0.0336,0.0402,0.0514,0.066,0.077,0.0888,0.1028,0.1108,0.1259,0.1331,0.1519,0.1611,0.1703,0.1777,0.1836,0.1841,0.1822,0.1739,0.172,0.1727,0.1755,0.197,0.197,0.197,0.197,0,0.0052,0.0166,0.0279,0.045,0.0492,0.0546,0.0679,0.0753,0.0883,0.0979,0.1012,0.1214,0.1343,0.15,0.1676,0.174,0.1844,0.1855,0.1705,0.1671,0.1661,0.1695,0.1821,0.1852,0.1849,0.1848,0.1847,0,0.004,0.0089,0.0225,0.0262,0.0323,0.0416,0.0473,0.0638,0.0704,0.0907,0.0934,0.1092,0.1235,0.1435,0.156,0.17,0.1782,0.1689,0.1717,0.1676,0.1702,0.1739,0.1761,0.1632,0.1629,0.1627,0.1625,0,-0.0015,0.001,0.0079,0.0141,0.0195,0.0278,0.0369,0.0402,0.0605,0.0704,0.0879,0.1015,0.1189,0.1324,0.146,0.1548,0.1679,0.1643,0.1677,0.1621,0.1601,0.1611,0.155,0.1604,0.1606,0.1607,0.1608,0.1609,-0.0097,-0.009,-0.0017,0.0039,0.0102,0.0184,0.026,0.0349,0.0473,0.0642,0.0791,0.0931,0.1095,0.1294,0.1382,0.1428,0.1545,0.1481,0.1543,0.1597,0.16,0.1456,0.1443,0.1444,0.1445,0.1446,0.1447,0,-0.0164,-0.0139,-0.0105,-0.0006,0.0061,0.0126,0.0242,0.0328,0.047,0.0509,0.0684,0.0817,0.0974,0.11,0.1227,0.1315,0.1384,0.1382,0.1439,0.1484,0.1407,0.1367,0.1244,0.1244,0.1244,0.1244,0.1244,0.1244,-0.0187,-0.0183,-0.0155,-0.0048,0.004,0.0196,0.029,0.0367,0.0408,0.0468,0.0482,0.0555,0.0782,0.1092,0.1244,0.1279,0.1406,0.1392,0.1521,0.1455,0.1469,0.1483,0.1453,0.1351,0.1351,0.1549,0.1551,0.1552]}],[{"header":{"parameterUnit":"m.s-1","parameterCategory":2,"la1":30.2991,"la2":30.254,"lo1":-89.0895,"lo2":-89.0444,"dy":0.0017,"dx":0.0017,"nx":28,"ny":28,"refTime":"2025-07-16T09:00:00:Z","depth":"2","parameterNumber":2,"parameterNumberName":"U-component_of_CURRENTS"},"data":[0,0,0,0,0,0,0,0,0,0,0,0,0,0,0,0,0,0,0,0,0,0,0,0,0,0,0,0,0,0,0,0,0,0,0,0,0,0,0,0,0,0,0,0,0,0,0,0,0,0,0,0,0,0,0,0,0,0,-0.2556,-0.2556,0,-0.2634,-0.2635,-0.2636,-0.2617,-0.2616,-0.2614,-0.2613,-0.2611,-0.2612,-0.2614,0,0,0,0,0,0,0,0,0,0,0,0,0,-0.2366,-0.237,-0.2555,-0.2556,-0.2558,-0.2634,-0.2635,-0.2636,-0.2617,-0.2615,-0.2614,-0.2612,-0.2611,-0.2612,-0.2614,0,0,0,0,0,0,0,0,0,0,0,0,0,-0.2447,-0.2371,-0.2555,-0.2558,-0.2559,-0.2634,-0.2635,-0.2636,-0.2618,-0.2615,-0.2613,-0.2611,-0.261,-0.2612,-0.2614,-0.267,0,0,-0.262,-0.2621,0,0,0,0,0,0,0,0,-0.2442,-0.2453,-0.2557,-0.2558,-0.2559,-0.2614,-0.2568,-0.2644,-0.2618,-0.2595,-0.2613,-0.261,-0.2607,-0.2609,-0.2629,-0.2669,-0.2669,-0.262,-0.2621,-0.2622,-0.2623,0,0,0,0,0,0,0,-0.2437,-0.245,-0.2586,-0.2558,-0.256,-0.2548,-0.2557,-0.2582,-0.261,-0.2596,-0.2595,-0.2606,-0.2607,-0.2627,-0.2628,-0.2669,-0.262,-0.2622,-0.2623,-0.2624,-0.2649,-0.2649,0,0,0,0,0,0,-0.2433,-0.2445,-0.2583,-0.2588,-0.2495,-0.2553,-0.2563,-0.2598,-0.2611,-0.2612,-0.2608,-0.2605,-0.2625,-0.2626,-0.2628,-0.2642,-0.2622,-0.2624,-0.2625,-0.265,-0.2649,-0.2648,0,0,0,0,0,0,-0.2429,-0.2446,-0.258,-0.2517,-0.2533,-0.2559,-0.2598,-0.2601,-0.2643,-0.2621,-0.262,-0.2649,-0.2623,-0.2625,-0.2656,-0.2643,-0.2625,-0.2627,-0.265,-0.2649,-0.2649,-0.2703,0,0,0,0,0,0,-0.2424,-0.2445,-0.2477,-0.2518,-0.2537,-0.2646,-0.26,-0.2604,-0.2651,-0.2649,-0.2656,-0.2652,-0.2621,-0.2654,-0.2658,-0.2645,-0.2628,-0.2651,-0.265,-0.2649,-0.2701,-0.2704,-0.2706,0,0,0,0,0,-0.2417,-0.2487,-0.2479,-0.2495,-0.2579,-0.2649,-0.2659,-0.2666,-0.2656,-0.2693,-0.2679,-0.2653,-0.2648,-0.2657,-0.2662,-0.2649,-0.2651,-0.265,-0.2649,-0.27,-0.2703,-0.2706,0,0,0,0,0,0,-0.2445,-0.2493,-0.2484,-0.257,-0.2608,-0.2646,-0.2687,-0.2695,-0.2721,-0.271,-0.2685,-0.2682,-0.2691,-0.2674,-0.2685,-0.2646,-0.2631,-0.2631,-0.2668,-0.2671,-0.2673,-0.2654,-0.263,0,0,0,0,0,-0.2461,-0.2503,-0.2552,-0.2614,-0.2642,-0.2669,-0.2701,-0.2707,-0.273,-0.2741,-0.2735,-0.2711,-0.2691,-0.2688,-0.2675,-0.2693,-0.267,-0.2672,-0.2674,-0.2676,-0.2661,-0.2654,-0.2655,-0.2645,-0.2645,-0.2645,0,0,-0.2482,-0.2515,-0.2539,-0.2617,-0.2646,-0.2699,-0.2685,-0.2746,-0.2764,-0.2737,-0.2764,-0.2739,-0.27,-0.2691,-0.269,-0.2678,-0.2664,-0.2675,-0.2678,-0.266,-0.2653,-0.2655,-0.2656,-0.2644,-0.2644,-0.2644,0,0,-0.256,-0.2586,-0.2652,-0.2682,-0.2733,-0.2743,-0.2771,-0.2817,-0.2814,-0.2858,-0.2799,-0.2776,-0.2791,-0.2724,-0.27,-0.2716,-0.2683,-0.27,-0.2696,-0.2692,-0.2693,-0.2694,-0.2658,-0.2656,-0.2694,-0.2694,-0.2694,0,-0.2594,-0.2637,-0.2684,-0.275,-0.2749,-0.277,-0.2814,-0.284,-0.2877,-0.2859,-0.2872,-0.2818,-0.2797,-0.273,-0.2713,-0.272,-0.2705,-0.2697,-0.2697,-0.2697,-0.2697,-0.2661,-0.2657,-0.2696,-0.2696,-0.2696,-0.2696,0,-0.2702,-0.272,-0.2761,-0.2816,-0.2864,-0.288,-0.2917,-0.2939,-0.2938,-0.2934,-0.29,-0.2865,-0.2816,-0.2795,-0.2766,-0.2717,-0.2702,-0.2712,-0.2698,-0.2702,-0.2663,-0.2658,-0.27,-0.2699,-0.2698,-0.2698,0,0,-0.2758,-0.2816,-0.2822,-0.2813,-0.2856,-0.2909,-0.2939,-0.2943,-0.2953,-0.2957,-0.2943,-0.2877,-0.2839,-0.2803,-0.2742,-0.2721,-0.2708,-0.2713,-0.2712,-0.2689,-0.2678,-0.2542,-0.2523,-0.2732,-0.2732,-0.2732,-0.2649,0,-0.278,-0.2844,-0.2896,-0.2926,-0.2909,-0.2937,-0.2978,-0.3002,-0.2995,-0.3003,-0.2927,-0.2918,-0.2847,-0.2829,-0.2785,-0.2742,-0.2698,-0.2727,-0.2665,-0.2662,-0.2551,-0.2514,-0.2314,-0.2213,-0.2644,-0.2643,-0.2643,0,-0.2788,-0.2812,-0.2826,-0.2867,-0.2892,-0.2964,-0.2971,-0.3024,-0.3031,-0.303,-0.2974,-0.2949,-0.2871,-0.2856,-0.2742,-0.277,-0.271,-0.2677,-0.2674,-0.2519,-0.2516,-0.2277,-0.2188,-0.2634,-0.2635,-0.2636,-0.2636,0,-0.2619,-0.2734,-0.2708,-0.2714,-0.2815,-0.2867,-0.2963,-0.3008,-0.3041,-0.3048,-0.3054,-0.2975,-0.2933,-0.2875,-0.2748,-0.2777,-0.2641,-0.2687,-0.2488,-0.2478,-0.2275,-0.2247,-0.2605,-0.2605,-0.2605,-0.2606,-0.2606,0,-0.2441,-0.2432,-0.2653,-0.2608,-0.2683,-0.2824,-0.2906,-0.2959,-0.3053,-0.3059,-0.3058,-0.3,-0.2943,-0.2842,-0.2766,-0.257,-0.2643,-0.2457,-0.244,-0.2285,-0.2259,-0.2604,-0.2605,-0.2603,-0.2603,-0.2604,-0.2604,0,-0.2156,-0.2233,-0.2289,-0.2499,-0.2553,-0.2648,-0.2905,-0.2945,-0.306,-0.306,-0.3071,-0.3025,-0.2887,-0.2778,-0.2662,-0.2554,-0.2435,-0.234,-0.2134,-0.2092,-0.2283,-0.2288,-0.2163,-0.2157,-0.2153,-0.2149,-0.2145,0,-0.1985,-0.1987,-0.224,-0.2295,-0.2385,-0.2566,-0.2631,-0.2858,-0.292,-0.3025,-0.2982,-0.2902,-0.2673,-0.2444,-0.2278,-0.2084,-0.2243,-0.1873,-0.1885,-0.2237,-0.2234,-0.2247,-0.2258,-0.1642,-0.1635,-0.1629,-0.1624,0,-0.1788,-0.1937,-0.2003,-0.209,-0.2193,-0.2367,-0.2537,-0.2554,-0.2765,-0.2731,-0.264,-0.249,-0.227,-0.1941,-0.1751,-0.1655,-0.1904,-0.1746,-0.2155,-0.1784,-0.1738,-0.1739,-0.1768,-0.1571,-0.1577,-0.158,-0.1583,-0.1585,-0.1741,-0.1767,-0.1874,-0.1957,-0.2048,-0.212,-0.2123,-0.2239,-0.2218,-0.2097,-0.2165,-0.1863,-0.1835,-0.1356,-0.1281,-0.1302,-0.1424,-0.144,-0.1461,-0.1489,-0.1442,-0.139,-0.1148,-0.115,-0.1153,-0.1155,-0.1156,0,-0.1632,-0.1654,-0.1735,-0.1785,-0.1776,-0.1933,-0.1985,-0.1883,-0.167,-0.1623,-0.1429,-0.1154,-0.0909,-0.0992,-0.0867,-0.0848,-0.0884,-0.0918,-0.0977,-0.1024,-0.1068,-0.1007,-0.0594,-0.0593,-0.0593,-0.0592,0,0,-0.157,-0.1531,-0.1557,-0.1494,-0.1529,-0.1444,-0.1408,-0.1203,-0.1122,-0.0809,-0.0699,-0.0619,-0.0783,-0.0608,-0.0617,-0.0593,-0.0805,-0.0571,-0.0999,-0.1103,-0.1146,-0.1323,-0.1274,0,0,0,0,0]},{"header":{"parameterUnit":"m.s-1","parameterCategory":2,"la1":30.2991,"la2":30.254,"lo1":-89.0895,"lo2":-89.0444,"dy":0.0017,"dx":0.0017,"nx":28,"ny":28,"refTime":"2025-07-16T09:00:00:Z","depth":"2","parameterNumber":3,"parameterNumberName":"V-component_of_CURRENTS"},"data":[0,0,0,0,0,0,0,0,0,0,0,0,0,0,0,0,0,0,0,0,0,0,0,0,0,0,0,0,0,0,0,0,0,0,0,0,0,0,0,0,0,0,0,0,0,0,0,0,0,0,0,0,0,0,0,0,0,0,-0.0778,-0.0778,0,-0.0701,-0.07,-0.0698,-0.0639,-0.0638,-0.0638,-0.0638,-0.0411,-0.0405,-0.0399,0,0,0,0,0,0,0,0,0,0,0,0,0,-0.0715,-0.0717,-0.0778,-0.0778,-0.0777,-0.0701,-0.07,-0.0698,-0.0639,-0.0638,-0.0638,-0.0638,-0.0413,-0.0406,-0.0399,0,0,0,0,0,0,0,0,0,0,0,0,0,-0.0698,-0.0718,-0.0778,-0.074,-0.0737,-0.0701,-0.07,-0.0698,-0.0639,-0.0638,-0.0638,-0.0638,-0.0415,-0.0406,-0.0398,-0.0352,0,0,-0.0371,-0.0368,0,0,0,0,0,0,0,0,-0.0699,-0.07,-0.0747,-0.0743,-0.0739,-0.0682,-0.0594,-0.0576,-0.0639,-0.0672,-0.0638,-0.0637,-0.049,-0.0475,-0.0459,-0.0342,-0.0332,-0.0371,-0.0365,-0.0362,-0.0359,0,0,0,0,0,0,0,-0.07,-0.0702,-0.0744,-0.0746,-0.0741,-0.0673,-0.0671,-0.059,-0.0579,-0.0669,-0.0666,-0.0662,-0.0486,-0.0468,-0.0453,-0.0328,-0.0371,-0.0363,-0.0358,-0.0354,0.0026,0.0031,0,0,0,0,0,0,-0.0726,-0.0704,-0.0747,-0.0742,-0.0721,-0.0675,-0.0673,-0.0698,-0.0583,-0.0567,-0.0663,-0.066,-0.0483,-0.0463,-0.0444,-0.026,-0.0362,-0.0353,-0.0348,0.0022,0.0027,0.0033,0,0,0,0,0,0,-0.0725,-0.0732,-0.075,-0.0721,-0.072,-0.0678,-0.0705,-0.0697,-0.0669,-0.058,-0.0561,-0.0645,-0.0481,-0.0456,-0.0352,-0.0255,-0.035,-0.0342,0.0016,0.0023,0.003,0.003,0,0,0,0,0,0,-0.0724,-0.0733,-0.0753,-0.0725,-0.0723,-0.0727,-0.0706,-0.0695,-0.067,-0.0665,-0.0558,-0.0537,-0.0479,-0.0365,-0.0343,-0.0245,-0.0335,0.001,0.0019,0.0028,0.0024,0.0037,0.0048,0,0,0,0,0,-0.0723,-0.0766,-0.0756,-0.076,-0.0756,-0.0727,-0.0719,-0.0684,-0.067,-0.0657,-0.0574,-0.054,-0.0289,-0.0357,-0.0331,-0.0228,0.0005,0.0016,0.0027,0.0019,0.0034,0.0047,0,0,0,0,0,0,-0.0751,-0.0763,-0.0751,-0.0796,-0.0759,-0.0718,-0.0716,-0.0683,-0.0612,-0.0604,-0.0514,-0.0486,-0.035,-0.0287,-0.0364,-0.0081,-0.012,-0.0104,-0.0134,-0.0119,-0.0108,-0.0155,-0.0328,0,0,0,0,0,-0.0769,-0.0804,-0.0779,-0.0809,-0.0799,-0.0752,-0.0736,-0.0708,-0.0648,-0.0618,-0.0534,-0.0415,-0.0284,-0.021,-0.0111,0.0021,0.002,0.0123,0.0134,0.0143,0.0129,0.0167,0.0177,0.0069,0.0069,0.0069,0,0,-0.0791,-0.0799,-0.082,-0.0816,-0.0792,-0.076,-0.0741,-0.0723,-0.0658,-0.06,-0.0489,-0.0394,-0.0246,-0.0093,-0.002,-0.0028,0.0185,0.0157,0.0163,0.0143,0.0179,0.0188,0.0196,0.0076,0.0075,0.0074,0,0,-0.0835,-0.0856,-0.0884,-0.0849,-0.0817,-0.0779,-0.0772,-0.0715,-0.0653,-0.0551,-0.0459,-0.0315,-0.0151,-0.0002,0.0093,0.0235,0.0226,0.029,0.0329,0.0366,0.0373,0.0378,0.0409,0.0417,0.0317,0.0317,0.0317,0,-0.0853,-0.0911,-0.0879,-0.0867,-0.086,-0.0786,-0.0787,-0.0686,-0.0588,-0.0544,-0.0514,-0.0249,-0.0094,0.011,0.0206,0.0262,0.0248,0.025,0.0371,0.0377,0.0382,0.0412,0.0421,0.0318,0.0318,0.0318,0.0318,0,-0.0916,-0.0931,-0.0944,-0.0912,-0.0865,-0.0879,-0.0746,-0.0673,-0.06,-0.0517,-0.0351,-0.016,-0.0011,0.0117,0.0226,0.039,0.0355,0.035,0.0305,0.0391,0.042,0.0429,0.032,0.032,0.0319,0.0319,0,0,-0.1062,-0.1014,-0.1014,-0.1016,-0.0922,-0.0904,-0.0765,-0.0673,-0.0605,-0.0452,-0.0376,-0.0054,0.0004,0.0121,0.0279,0.0388,0.0496,0.0401,0.0403,0.0379,0.0541,0.0421,0.0419,0.0467,0.0469,0.047,0.0548,0,-0.1147,-0.1176,-0.1105,-0.1096,-0.1116,-0.0982,-0.0861,-0.0725,-0.0602,-0.0484,-0.0268,-0.012,0.0025,0.0115,0.0242,0.0431,0.0515,0.0473,0.0508,0.051,0.0348,0.0425,0.0378,0.0433,0.0557,0.0558,0.0559,0,-0.1263,-0.1273,-0.13,-0.1237,-0.1228,-0.1167,-0.1045,-0.0912,-0.0679,-0.0583,-0.0425,-0.0279,-0.0013,0.0058,0.034,0.0282,0.0413,0.0536,0.054,0.0422,0.0405,0.0373,0.0443,0.0573,0.0572,0.0571,0.057,0,-0.1437,-0.1425,-0.1474,-0.1451,-0.1323,-0.1286,-0.1198,-0.0972,-0.0845,-0.0642,-0.0566,-0.0336,-0.017,-0.0012,0.0299,0.0301,0.0532,0.0556,0.0553,0.0545,0.0513,0.0499,0.0687,0.0687,0.0687,0.0687,0.0687,0,-0.1573,-0.1599,-0.1567,-0.1568,-0.1577,-0.1432,-0.1351,-0.1208,-0.0996,-0.0859,-0.0631,-0.0503,-0.0183,0.0007,0.0219,0.0405,0.0456,0.0554,0.0555,0.0518,0.0503,0.0627,0.0619,0.069,0.0689,0.0688,0.0688,0,-0.1643,-0.1658,-0.1696,-0.165,-0.1636,-0.1605,-0.1425,-0.1346,-0.1145,-0.0964,-0.0898,-0.0596,-0.0364,-0.0091,0.0213,0.0319,0.0502,0.0543,0.0475,0.0464,0.0508,0.05,0.0532,0.0529,0.0526,0.0523,0.0521,0,-0.1649,-0.1699,-0.1739,-0.1751,-0.1711,-0.1658,-0.1596,-0.1418,-0.1316,-0.1019,-0.0954,-0.0689,-0.0519,-0.0171,0.0066,0.03,0.0431,0.0391,0.0405,0.0493,0.0492,0.0489,0.0486,0.0399,0.0396,0.0394,0.0392,0,-0.1637,-0.1684,-0.1703,-0.1752,-0.1753,-0.1726,-0.1645,-0.1601,-0.137,-0.1241,-0.1039,-0.0902,-0.0583,-0.0336,-0.0061,0.0087,0.0338,0.0339,0.0474,0.0406,0.0363,0.0362,0.0365,0.037,0.0373,0.0374,0.0375,0.0376,-0.162,-0.1638,-0.1704,-0.1731,-0.1756,-0.1767,-0.1705,-0.1634,-0.1515,-0.1244,-0.1154,-0.0887,-0.0666,-0.0289,-0.0093,0.013,0.0124,0.0247,0.0258,0.0271,0.0202,0.0151,0.0108,0.0108,0.0109,0.0109,0.011,0,-0.157,-0.162,-0.1659,-0.1711,-0.172,-0.174,-0.1697,-0.1578,-0.146,-0.1279,-0.108,-0.0792,-0.0594,-0.0299,-0.0044,0.0054,0.0121,0.0152,0.0241,0.0255,0.027,0.0207,0.0113,0.0114,0.0115,0.0116,0,0,-0.1564,-0.1591,-0.1623,-0.1656,-0.1677,-0.1641,-0.1612,-0.1453,-0.1286,-0.108,-0.0892,-0.0738,-0.0528,-0.0302,-0.0158,0.0007,0.0125,0.0036,0.0002,0.0099,0.0115,0.0268,0.0177,0,0,0,0,0]}],[{"header":{"parameterUnit":"m.s-1","parameterCategory":2,"la1":30.2991,"la2":30.254,"lo1":-89.0895,"lo2":-89.0444,"dy":0.0017,"dx":0.0017,"nx":28,"ny":28,"refTime":"2025-07-16T09:00:00:Z","depth":"4","parameterNumber":2,"parameterNumberName":"U-component_of_CURRENTS"},"data":[0,0,0,0,0,0,0,0,0,0,0,0,0,0,0,0,0,0,0,0,0,0,0,0,0,0,0,0,0,0,0,0,0,0,0,0,0,0,0,0,0,0,0,0,0,0,0,0,0,0,0,0,0,0,0,0,0,0,-0.1306,-0.1306,0,-0.1285,-0.1285,-0.1285,-0.1351,-0.1352,-0.1354,-0.1355,-0.1376,-0.1375,-0.1374,0,0,0,0,0,0,0,0,0,0,0,0,0,-0.1427,-0.1425,-0.1306,-0.1305,-0.1305,-0.1285,-0.1285,-0.1285,-0.1351,-0.1352,-0.1354,-0.1356,-0.1376,-0.1375,-0.1374,0,0,0,0,0,0,0,0,0,0,0,0,0,-0.1392,-0.1424,-0.1306,-0.1331,-0.1333,-0.1285,-0.1285,-0.1285,-0.135,-0.1353,-0.1355,-0.1357,-0.1376,-0.1375,-0.1374,-0.132,0,0,-0.137,-0.1369,0,0,0,0,0,0,0,0,-0.1394,-0.1388,-0.1328,-0.1329,-0.1331,-0.1318,-0.1335,-0.1297,-0.135,-0.1349,-0.1355,-0.1358,-0.1355,-0.1356,-0.1354,-0.1321,-0.1322,-0.137,-0.1369,-0.1368,-0.1368,0,0,0,0,0,0,0,-0.1396,-0.139,-0.1303,-0.1327,-0.1329,-0.1351,-0.1349,-0.1329,-0.1344,-0.1349,-0.1353,-0.1341,-0.1357,-0.1355,-0.1355,-0.1322,-0.137,-0.1369,-0.1368,-0.1367,-0.1264,-0.1262,0,0,0,0,0,0,-0.1384,-0.1391,-0.1304,-0.1302,-0.1363,-0.1347,-0.1345,-0.1324,-0.1344,-0.1347,-0.1339,-0.1344,-0.1356,-0.1356,-0.1356,-0.1329,-0.1368,-0.1367,-0.1366,-0.1266,-0.1264,-0.1262,0,0,0,0,0,0,-0.1387,-0.1376,-0.1304,-0.1343,-0.1335,-0.1341,-0.1319,-0.1323,-0.1349,-0.1335,-0.1341,-0.1365,-0.1358,-0.1357,-0.1349,-0.1329,-0.1366,-0.1365,-0.1268,-0.1265,-0.1263,-0.1252,0,0,0,0,0,0,-0.139,-0.1377,-0.1377,-0.1342,-0.1332,-0.1286,-0.1316,-0.132,-0.1334,-0.1342,-0.1357,-0.136,-0.1359,-0.1351,-0.1348,-0.1328,-0.1364,-0.1271,-0.1267,-0.1264,-0.1255,-0.1249,-0.1244,0,0,0,0,0,-0.1394,-0.1371,-0.1377,-0.1368,-0.1326,-0.1285,-0.1283,-0.1299,-0.1333,-0.1336,-0.1346,-0.1361,-0.1325,-0.1349,-0.1346,-0.1325,-0.1273,-0.1268,-0.1264,-0.1257,-0.125,-0.1244,0,0,0,0,0,0,-0.1417,-0.1374,-0.138,-0.1345,-0.1324,-0.1294,-0.1288,-0.1308,-0.1319,-0.1344,-0.1344,-0.1345,-0.1341,-0.1319,-0.1345,-0.1279,-0.1297,-0.1292,-0.1293,-0.1287,-0.1281,-0.1361,-0.1363,0,0,0,0,0,-0.142,-0.1405,-0.1361,-0.134,-0.1318,-0.1311,-0.1306,-0.1327,-0.1318,-0.1329,-0.1335,-0.1329,-0.131,-0.1293,-0.129,-0.1241,-0.1283,-0.1219,-0.1214,-0.121,-0.1268,-0.1286,-0.1289,-0.1247,-0.1247,-0.1247,0,0,-0.1421,-0.1399,-0.139,-0.1347,-0.1326,-0.1288,-0.1315,-0.1311,-0.1302,-0.1325,-0.1322,-0.1333,-0.1301,-0.1268,-0.1258,-0.1249,-0.1236,-0.1204,-0.1201,-0.1264,-0.1282,-0.1287,-0.1291,-0.1244,-0.1245,-0.1245,0,0,-0.1384,-0.139,-0.1346,-0.1323,-0.13,-0.1302,-0.1304,-0.129,-0.1306,-0.1297,-0.1313,-0.1335,-0.1275,-0.1273,-0.1252,-0.1211,-0.1231,-0.1166,-0.1179,-0.1192,-0.1198,-0.1204,-0.1247,-0.1257,-0.1134,-0.1134,-0.1134,0,-0.1383,-0.133,-0.133,-0.1273,-0.1263,-0.1303,-0.1262,-0.1263,-0.1267,-0.1285,-0.1299,-0.1299,-0.1292,-0.1261,-0.1247,-0.121,-0.1218,-0.1207,-0.1192,-0.1198,-0.1204,-0.1248,-0.1259,-0.1133,-0.1133,-0.1133,-0.1133,0,-0.1282,-0.1266,-0.1234,-0.1188,-0.1185,-0.1166,-0.1162,-0.1185,-0.1228,-0.1251,-0.1279,-0.1285,-0.1296,-0.1262,-0.1244,-0.1251,-0.1245,-0.121,-0.1223,-0.1209,-0.1254,-0.1265,-0.1131,-0.1131,-0.1132,-0.1132,0,0,-0.1181,-0.117,-0.1154,-0.1158,-0.1153,-0.1143,-0.1136,-0.1148,-0.117,-0.1211,-0.1235,-0.1241,-0.1308,-0.1293,-0.1274,-0.1282,-0.1328,-0.1254,-0.1255,-0.1328,-0.1369,-0.1151,-0.1143,-0.1265,-0.1267,-0.1268,-0.1379,0,-0.1095,-0.1027,-0.1041,-0.1015,-0.0988,-0.1046,-0.1033,-0.1078,-0.1127,-0.1162,-0.1226,-0.1248,-0.1284,-0.1292,-0.1319,-0.1314,-0.1359,-0.1304,-0.135,-0.1354,-0.1184,-0.1149,-0.1275,-0.1388,-0.1391,-0.1393,-0.1394,0,-0.0953,-0.0954,-0.0915,-0.0969,-0.0956,-0.0961,-0.1017,-0.1019,-0.1086,-0.1116,-0.1199,-0.1253,-0.1307,-0.1327,-0.1405,-0.135,-0.14,-0.1412,-0.1414,-0.1241,-0.1156,-0.1405,-0.1416,-0.1415,-0.1413,-0.1411,-0.141,0,-0.0881,-0.0862,-0.0866,-0.0867,-0.0911,-0.0931,-0.097,-0.1028,-0.1047,-0.1115,-0.1133,-0.1235,-0.1258,-0.1344,-0.1361,-0.1397,-0.141,-0.1458,-0.1342,-0.1329,-0.1508,-0.1502,-0.1576,-0.1575,-0.1575,-0.1575,-0.1575,0,-0.078,-0.0778,-0.0846,-0.084,-0.0861,-0.0909,-0.0943,-0.0972,-0.1033,-0.1048,-0.1129,-0.1127,-0.1258,-0.1266,-0.1347,-0.1318,-0.1404,-0.1374,-0.1335,-0.1494,-0.1484,-0.1517,-0.1508,-0.1579,-0.1578,-0.1577,-0.1577,0,-0.0706,-0.0733,-0.0745,-0.0806,-0.0829,-0.0854,-0.0928,-0.0942,-0.0983,-0.0999,-0.1019,-0.1062,-0.1068,-0.1139,-0.1229,-0.1244,-0.1267,-0.1247,-0.1391,-0.1354,-0.1231,-0.1221,-0.1242,-0.1235,-0.1229,-0.1224,-0.122,0,-0.0673,-0.0665,-0.0725,-0.0733,-0.0771,-0.0822,-0.0837,-0.091,-0.0922,-0.0932,-0.0915,-0.0931,-0.0955,-0.0896,-0.0992,-0.1095,-0.1106,-0.1129,-0.1261,-0.1233,-0.1195,-0.1194,-0.1191,-0.1211,-0.1209,-0.1207,-0.1206,0,-0.0619,-0.064,-0.066,-0.0683,-0.0709,-0.0725,-0.0764,-0.076,-0.0813,-0.086,-0.0793,-0.0802,-0.0771,-0.083,-0.0821,-0.0918,-0.1114,-0.1071,-0.109,-0.1216,-0.1196,-0.1163,-0.1168,-0.1185,-0.1188,-0.119,-0.1192,0,-0.0589,-0.0592,-0.0613,-0.0628,-0.0646,-0.0618,-0.0647,-0.0647,-0.067,-0.0704,-0.0672,-0.0675,-0.0731,-0.0732,-0.0734,-0.0756,-0.0876,-0.0931,-0.0961,-0.0984,-0.084,-0.0773,-0.061,0,0,0,0,0,-0.0559,-0.0547,-0.0553,-0.0549,-0.0559,-0.0567,-0.0587,-0.0614,-0.0667,-0.06,-0.0648,-0.062,-0.0622,-0.0627,-0.0631,-0.0697,-0.089,-0.0698,-0.097,-0.1072,-0.1096,-0.0944,0,0,0,0,0,0,-0.0529,-0.0538,-0.0536,-0.0485,-0.0463,-0.0459,-0.0461,-0.0484,-0.0463,-0.052,-0.0522,-0.0587,-0.0602,-0.0615,-0.0616,-0.063,-0.0792,-0.0738,-0.0736,-0.1059,-0.108,-0.1099,-0.0952,0,0,0,0,0]},{"header":{"parameterUnit":"m.s-1","parameterCategory":2,"la1":30.2991,"la2":30.254,"lo1":-89.0895,"lo2":-89.0444,"dy":0.0017,"dx":0.0017,"nx":28,"ny":28,"refTime":"2025-07-16T09:00:00:Z","depth":"4","parameterNumber":3,"parameterNumberName":"V-component_of_CURRENTS"},"data":[0,0,0,0,0,0,0,0,0,0,0,0,0,0,0,0,0,0,0,0,0,0,0,0,0,0,0,0,0,0,0,0,0,0,0,0,0,0,0,0,0,0,0,0,0,0,0,0,0,0,0,0,0,0,0,0,0,0,-0.0623,-0.0623,0,-0.0664,-0.0664,-0.0665,-0.0636,-0.0635,-0.0633,-0.0632,-0.0714,-0.0718,-0.0721,0,0,0,0,0,0,0,0,0,0,0,0,0,-0.0533,-0.0535,-0.0623,-0.0623,-0.0623,-0.0663,-0.0664,-0.0665,-0.0636,-0.0635,-0.0633,-0.0631,-0.0713,-0.0717,-0.0721,0,0,0,0,0,0,0,0,0,0,0,0,0,-0.0575,-0.0536,-0.0623,-0.0613,-0.0612,-0.0663,-0.0664,-0.0665,-0.0637,-0.0635,-0.0632,-0.063,-0.0712,-0.0717,-0.0722,-0.0799,0,0,-0.0738,-0.0741,0,0,0,0,0,0,0,0,-0.0572,-0.0578,-0.0614,-0.0613,-0.0613,-0.0641,-0.0663,-0.0711,-0.0637,-0.063,-0.0632,-0.0629,-0.0694,-0.07,-0.0715,-0.0803,-0.0806,-0.0739,-0.0742,-0.0744,-0.0746,0,0,0,0,0,0,0,-0.0569,-0.0576,-0.0641,-0.0614,-0.0614,-0.061,-0.0614,-0.0672,-0.0676,-0.063,-0.0628,-0.063,-0.0694,-0.071,-0.0717,-0.0807,-0.0739,-0.0743,-0.0747,-0.0749,-0.0999,-0.1002,0,0,0,0,0,0,-0.0563,-0.0574,-0.064,-0.0642,-0.0584,-0.0613,-0.0618,-0.0636,-0.0674,-0.0677,-0.0631,-0.0628,-0.0702,-0.0711,-0.072,-0.0853,-0.0744,-0.0749,-0.0752,-0.0995,-0.0999,-0.1003,0,0,0,0,0,0,-0.0561,-0.0569,-0.0638,-0.0606,-0.0614,-0.0617,-0.0638,-0.0638,-0.066,-0.0674,-0.0678,-0.0653,-0.0701,-0.0712,-0.0793,-0.0854,-0.0752,-0.0756,-0.0991,-0.0997,-0.1001,-0.1095,0,0,0,0,0,0,-0.0559,-0.0569,-0.0591,-0.0606,-0.0616,-0.0688,-0.064,-0.064,-0.0663,-0.0659,-0.0695,-0.07,-0.07,-0.0785,-0.0798,-0.086,-0.0761,-0.0987,-0.0994,-0.1,-0.1087,-0.1102,-0.1115,0,0,0,0,0,-0.0556,-0.0606,-0.0592,-0.06,-0.0643,-0.069,-0.0697,-0.069,-0.0666,-0.0698,-0.072,-0.0699,-0.0835,-0.0793,-0.0807,-0.0872,-0.0984,-0.0992,-0.0999,-0.1081,-0.1099,-0.1115,0,0,0,0,0,0,-0.0585,-0.0608,-0.0593,-0.0648,-0.067,-0.0684,-0.0719,-0.0707,-0.075,-0.0751,-0.0749,-0.0759,-0.0858,-0.0857,-0.0811,-0.0964,-0.0905,-0.0916,-0.0962,-0.098,-0.0993,-0.0953,-0.0765,0,0,0,0,0,-0.06,-0.0643,-0.0653,-0.0701,-0.0713,-0.0717,-0.0736,-0.0735,-0.0765,-0.078,-0.0809,-0.0846,-0.0904,-0.0931,-0.0987,-0.1073,-0.1027,-0.1123,-0.1137,-0.1149,-0.1128,-0.1103,-0.1111,-0.1029,-0.1029,-0.1028,0,0,-0.0627,-0.0644,-0.0669,-0.071,-0.0725,-0.0772,-0.0725,-0.0773,-0.0818,-0.0788,-0.0881,-0.0911,-0.0943,-0.1039,-0.1081,-0.1041,-0.116,-0.1159,-0.1168,-0.114,-0.1111,-0.1118,-0.1125,-0.1034,-0.1033,-0.1032,0,0,-0.0699,-0.0716,-0.0767,-0.0791,-0.082,-0.0833,-0.0849,-0.0882,-0.0902,-0.1005,-0.0983,-0.1034,-0.1152,-0.1153,-0.1175,-0.1302,-0.1245,-0.1339,-0.1367,-0.1344,-0.1349,-0.1352,-0.1337,-0.1338,-0.1332,-0.1333,-0.1333,0,-0.0726,-0.078,-0.0793,-0.0841,-0.0862,-0.0863,-0.0913,-0.0957,-0.1016,-0.1029,-0.1058,-0.1171,-0.1204,-0.1253,-0.1301,-0.1331,-0.1304,-0.1297,-0.1357,-0.1359,-0.1361,-0.1343,-0.1343,-0.1338,-0.1337,-0.1337,-0.1336,0,-0.0824,-0.0862,-0.09,-0.0955,-0.0993,-0.1042,-0.108,-0.1128,-0.1168,-0.1191,-0.1277,-0.1323,-0.1359,-0.1404,-0.1403,-0.1432,-0.1408,-0.1383,-0.1299,-0.1373,-0.1352,-0.135,-0.1346,-0.1344,-0.1342,-0.1341,0,0,-0.0881,-0.095,-0.0963,-0.097,-0.1045,-0.1074,-0.1168,-0.1217,-0.1238,-0.1339,-0.1368,-0.1485,-0.1462,-0.1482,-0.1474,-0.1463,-0.1483,-0.1432,-0.1428,-0.1391,-0.1434,-0.1284,-0.1267,-0.146,-0.146,-0.1459,-0.1423,0,-0.0939,-0.1021,-0.1057,-0.113,-0.1156,-0.1184,-0.1256,-0.1303,-0.1361,-0.1401,-0.1434,-0.1489,-0.1506,-0.1517,-0.1515,-0.148,-0.1477,-0.1494,-0.1388,-0.1385,-0.122,-0.1259,-0.1458,-0.1421,-0.1421,-0.142,-0.142,0,-0.1,-0.104,-0.1117,-0.1149,-0.1167,-0.1229,-0.128,-0.1344,-0.1397,-0.1437,-0.1476,-0.1494,-0.1506,-0.1515,-0.1488,-0.1495,-0.1475,-0.1455,-0.1453,-0.1264,-0.1229,-0.1327,-0.1415,-0.1416,-0.1416,-0.1416,-0.1417,0,-0.0977,-0.1063,-0.1112,-0.1135,-0.1205,-0.1241,-0.1287,-0.1351,-0.138,-0.1438,-0.1448,-0.1483,-0.1482,-0.1475,-0.1434,-0.1469,-0.1374,-0.1414,-0.1266,-0.1257,-0.1358,-0.1354,-0.1393,-0.1393,-0.1393,-0.1393,-0.1393,0,-0.0986,-0.1019,-0.1103,-0.1123,-0.1172,-0.1227,-0.1281,-0.1324,-0.1374,-0.1378,-0.1441,-0.142,-0.1469,-0.142,-0.1413,-0.1296,-0.1353,-0.1257,-0.1225,-0.1408,-0.141,-0.1358,-0.1354,-0.1392,-0.1392,-0.1392,-0.1392,0,-0.0943,-0.0999,-0.1046,-0.113,-0.1157,-0.1194,-0.1272,-0.1296,-0.1342,-0.1343,-0.1356,-0.1371,-0.1308,-0.1304,-0.1267,-0.1232,-0.1162,-0.1107,-0.128,-0.1261,-0.1088,-0.1091,-0.0987,-0.0981,-0.0976,-0.0972,-0.0968,0,-0.0925,-0.0949,-0.1043,-0.1072,-0.1118,-0.1181,-0.1217,-0.1284,-0.1291,-0.1281,-0.1251,-0.1213,-0.1207,-0.1041,-0.105,-0.1,-0.0991,-0.0967,-0.1067,-0.1061,-0.1041,-0.1052,-0.1061,-0.096,-0.0959,-0.0958,-0.0956,0,-0.0886,-0.0933,-0.0975,-0.1038,-0.1087,-0.1128,-0.1171,-0.1162,-0.12,-0.1231,-0.114,-0.1092,-0.0994,-0.0965,-0.089,-0.0864,-0.0996,-0.0917,-0.093,-0.1025,-0.1028,-0.1016,-0.1031,-0.0939,-0.0942,-0.0943,-0.0944,0,-0.0861,-0.0883,-0.0944,-0.0993,-0.1045,-0.1056,-0.1092,-0.1081,-0.109,-0.1078,-0.103,-0.0977,-0.0984,-0.0884,-0.0809,-0.076,-0.0799,-0.0822,-0.0842,-0.0861,-0.0825,-0.0811,-0.0611,0,0,0,0,0,-0.0828,-0.0846,-0.089,-0.0937,-0.0987,-0.1018,-0.1044,-0.1072,-0.1083,-0.1005,-0.1025,-0.0934,-0.0832,-0.0797,-0.0724,-0.0741,-0.0793,-0.0652,-0.0831,-0.0844,-0.0864,-0.0828,0,0,0,0,0,0,-0.08,-0.0842,-0.0867,-0.0879,-0.0905,-0.0945,-0.0965,-0.0979,-0.0936,-0.0946,-0.0897,-0.0898,-0.081,-0.0875,-0.0718,-0.0704,-0.08,-0.0625,-0.0623,-0.0833,-0.0851,-0.0867,-0.0837,0,0,0,0,0]}]]